Dewpoint
74 74 74 74 74 73 73 73 74 74 74 73 74 74 74 74 74 74 74 73 73 73 73 72 71 71 71 71 71 71 71 70 70 69 69 70 70 71 71 71 71 71 71 71 71 71 71 70 68 67 65 63 62 62 62 62 62 62 61 62 62 64 66 68 69 69 68 68 68 68 68 68 68 68 68 68 68 68 68 68 68 68 67 67 67 67 67 67 67 67 67 67 67 67 67 66 66 66 66 65 65 65 65
74 74 74 74 73 73 73 73 73 73 74 73 74 74 74 74 74 74 74 73 73 72 72 72 71 71 71 71 71 71 70 70 70 69 69 69 70 70 71 71 71 71 71 71 71 71 71 69 67 65 63 62 62 62 62 63 62 62 61 62 62 64 66 68 69 69 68 68 68 68 68 68 68 68 68 68 68 68 68 68 68 68 68 67 67 67 67 67 67 67 66 66 66 66 66 66 65 65 65 65 65 65 65
74 74 74 74 73 73 73 73 73 73 73 73 74 74 74 74 74 74 74 73 73 72 72 71 71 71 71 71 71 71 70 70 70 69 69 69 70 70 71 71 71 71 71 71 71 71 71 70 67 63 62 62 62 62 62 63 63 63 62 62 63 65 67 68 69 69 68 68 68 68 68 68 68 68 68 68 68 68 68 68 68 68 67 67 67 67 67 67 67 67 66 66 65 65 65 65 65 65 65 65 65 65 65
74 74 74 73 73 73 72 72 73 73 73 73 74 74 74 74 74 74 74 73 73 72 71 71 71 71 71 71 71 71 70 70 69 69 69 69 70 70 70 70 70 70 70 70 70 70 69 67 65 63 62 62 62 62 63 64 65 65 64 64 65 66 68 69 69 68 68 68 68 68 68 69 68 68 68 67 67 67 68 68 68 67 67 67 67 67 67 67 67 67 67 66 66 66 65 65 65 65 65 65 65 66 66
74 74 74 73 73 72 72 72 72 73 73 73 74 74 74 74 74 74 74 73 72 72 71 71 71 70 71 71 71 70 70 70 70 69 69 69 70 70 70 70 70 70 70 70 70 69 67 65 64 62 62 62 62 63 64 65 66 66 66 66 67 67 69 69 68 68 68 68 68 68 69 69 69 68 68 67 67 67 67 67 67 67 66 66 66 66 66 66 67 67 66 66 66 66 66 66 66 66 66 66 66 66 66
74 74 74 73 72 72 72 72 72 72 73 73 74 74 74 74 74 73 73 73 72 71 71 71 70 70 70 70 70 70 70 70 70 69 69 69 69 70 70 70 70 70 70 70 69 68 67 64 62 62 62 62 62 63 65 66 67 67 67 67 68 69 69 68 68 68 68 68 68 68 69 70 70 69 68 67 67 67 67 67 67 66 66 66 66 66 65 66 66 66 66 66 67 67 67 67 67 67 66 66 66 66 65
74 74 74 73 72 72 71 72 72 72 73 73 73 74 74 73 73 73 73 72 71 71 71 70 70 70 70 70 70 70 70 70 70 69 69 69 69 69 69 69 69 69 69 69 69 68 67 64 62 61 62 62 62 63 65 66 67 67 68 69 69 69 69 68 68 68 67 67 67 68 69 70 70 69 68 67 67 67 67 67 67 67 67 67 67 66 66 66 65 66 66 67 67 67 67 67 67 67 67 66 66 65 65
74 74 73 72 72 71 71 72 72 72 72 73 73 73 73 73 73 73 72 72 71 71 71 70 70 70 70 70 70 70 70 70 70 69 69 69 69 69 69 69 69 69 69 69 68 68 68 66 63 61 61 62 62 63 66 67 68 68 69 69 69 69 69 68 68 68 67 67 67 67 68 69 69 68 68 67 67 67 68 68 67 67 67 67 67 67 67 67 67 66 67 67 67 67 67 67 67 67 67 67 66 65 65
74 73 73 72 72 71 71 72 72 72 72 73 72 72 73 73 73 73 72 71 71 71 71 70 70 70 70 70 70 70 70 70 69 69 69 69 69 69 69 69 69 68 68 68 68 68 68 66 62 60 61 61 62 64 66 67 68 69 70 70 70 69 69 68 68 68 68 67 67 67 68 68 68 68 67 68 68 68 69 68 68 68 67 67 67 67 67 67 67 67 67 67 67 67 67 67 67 67 67 66 66 65 65
74 73 72 72 72 71 71 72 72 72 73 72 72 72 73 73 73 73 72 71 71 71 70 70 70 70 70 70 70 70 70 69 69 69 69 69 68 68 68 68 68 68 68 67 67 67 68 65 62 60 59 60 62 64 66 67 69 70 70 70 70 70 69 68 69 69 68 68 67 67 67 67 68 68 68 69 69 69 69 68 68 67 67 67 67 66 66 66 67 67 67 67 67 67 67 67 67 67 66 66 65 65 65
73 73 72 72 72 71 71 72 72 72 73 72 72 73 73 73 73 73 72 71 71 71 70 70 70 70 70 70 70 69 69 69 69 69 69 68 68 68 68 68 68 67 67 67 67 67 67 65 62 58 59 59 61 63 66 67 68 70 70 71 71 71 70 69 69 69 69 68 67 67 67 67 68 68 69 69 70 69 69 68 68 67 67 67 66 66 66 66 66 66 66 66 66 66 66 66 66 66 66 66 65 65 65
73 72 72 72 71 71 71 72 72 72 73 72 72 72 73 73 73 72 72 71 71 70 70 70 70 70 70 70 69 69 69 69 69 69 69 68 68 68 67 67 67 67 67 67 67 67 66 62 59 57 58 58 60 63 65 67 68 69 70 71 71 71 71 70 70 70 70 69 68 67 67 68 68 69 70 70 70 70 69 68 67 67 67 67 66 66 66 65 65 65 65 65 65 65 66 66 66 66 66 66 65 65 65
72 72 72 71 71 71 71 72 72 72 72 72 72 72 72 73 72 72 71 71 71 70 70 70 70 70 70 70 69 69 69 69 69 69 68 68 68 67 67 67 67 67 67 67 67 66 63 58 57 57 57 58 60 62 65 66 67 69 70 71 72 72 71 71 71 71 70 69 69 68 68 68 69 70 70 70 70 69 68 68 67 67 67 67 67 66 66 66 65 65 65 64 64 64 65 65 65 66 66 66 65 65 65
71 71 71 71 71 71 71 72 72 72 72 72 72 72 72 72 72 72 71 71 70 70 70 70 70 70 70 69 69 69 70 69 69 69 68 68 67 67 67 67 67 67 67 66 65 62 60 57 56 56 57 59 62 64 65 66 67 69 71 71 72 72 72 72 71 71 71 70 69 69 68 69 69 70 70 70 69 69 68 67 67 67 67 67 67 67 67 66 66 65 65 65 64 65 65 65 65 66 66 65 65 65 64
70 70 70 70 71 71 72 72 72 72 72 72 72 72 72 72 72 71 71 70 70 70 70 70 70 70 70 69 70 70 70 70 69 69 68 68 67 67 67 67 67 67 67 65 62 59 57 56 56 56 57 59 62 65 66 67 68 69 71 71 72 72 72 72 72 71 71 70 70 69 69 69 69 69 69 69 69 68 68 67 67 67 66 66 67 67 67 66 66 66 66 66 65 65 65 66 66 65 65 65 64 64 64
69 69 69 70 71 71 71 72 72 72 72 72 72 72 72 71 71 71 71 70 70 70 70 70 70 70 70 70 70 70 69 69 69 68 68 68 67 67 67 67 67 66 65 62 60 58 55 55 56 57 57 60 62 65 66 67 68 70 71 71 72 72 72 72 72 71 71 71 70 70 69 69 68 68 68 68 68 68 67 67 67 66 66 66 66 66 66 66 66 66 66 66 67 67 66 66 65 65 65 64 64 64 63
67 68 69 70 71 71 71 71 71 71 71 71 72 71 71 71 71 71 71 70 70 70 70 70 70 70 70 70 70 69 68 68 68 68 68 68 67 67 67 67 66 64 62 61 59 57 54 55 56 56 57 60 63 65 66 67 69 70 71 71 72 72 72 71 71 71 71 71 70 70 69 69 68 68 68 68 68 67 67 67 67 66 66 66 66 66 65 65 65 66 66 67 67 67 66 66 65 65 64 64 63 63 63
67 68 70 70 71 71 71 71 71 71 71 71 71 71 71 71 71 71 70 70 70 70 70 70 70 70 70 70 69 68 67 67 67 67 67 67 67 67 67 66 65 62 60 60 59 57 54 55 55 56 57 61 63 65 66 67 69 70 71 71 72 72 71 71 70 70 70 70 70 69 69 68 68 68 68 68 67 67 67 67 67 66 66 66 66 65 65 65 65 65 66 66 67 67 66 65 65 64 64 64 63 63 63
68 69 70 70 70 71 71 71 71 71 71 71 71 71 71 71 71 70 70 70 70 70 70 70 70 70 70 70 69 67 67 66 65 65 65 66 66 66 65 64 62 60 59 60 59 57 54 54 55 56 58 62 64 65 66 67 69 70 71 71 71 71 71 70 69 68 68 68 68 68 68 68 68 68 68 68 67 67 67 67 67 66 66 66 66 66 66 65 65 65 65 66 66 66 66 65 65 64 64 63 63 63 63
68 69 70 70 70 70 71 71 71 71 71 71 71 71 71 71 70 70 70 70 70 70 70 70 70 70 70 69 68 67 65 64 63 63 63 63 64 63 62 62 60 59 59 60 58 56 54 54 55 56 59 62 64 65 65 67 68 70 70 71 71 71 70 69 68 68 68 68 68 68 68 68 68 68 68 67 67 67 67 67 67 66 66 66 67 67 67 66 65 65 65 65 66 66 65 65 65 64 64 63 63 63 63
70 70 70 70 70 70 70 71 71 71 71 71 71 71 71 70 70 70 70 70 70 70 70 70 69 69 69 68 67 66 64 63 62 62 62 62 62 62 61 60 59 59 59 60 58 55 54 55 55 57 60 62 64 65 65 67 68 69 70 71 71 71 70 69 69 68 68 68 68 67 68 68 67 67 67 67 67 67 67 67 67 66 66 66 67 67 67 67 66 66 65 65 65 65 65 65 64 64 63 63 63 63 63
70 70 70 70 69 70 70 70 71 71 71 70 70 70 70 69 69 69 69 69 69 70 70 69 69 68 68 67 67 66 64 62 61 61 61 61 61 60 59 59 58 59 59 59 57 55 55 55 55 57 60 62 64 65 66 67 69 69 69 70 71 71 71 70 69 68 68 68 68 67 67 67 67 67 67 67 67 67 67 67 67 66 66 66 67 67 67 67 66 66 65 65 65 65 64 64 64 64 63 63 63 63 64
70 70 70 70 69 69 70 70 70 71 70 70 70 70 70 69 69 68 68 68 68 68 69 68 67 67 67 67 67 66 63 62 61 60 60 60 59 59 58 58 58 58 59 58 56 55 55 55 56 57 61 63 64 65 67 68 69 69 69 69 70 70 71 70 69 68 68 68 67 67 67 67 67 67 67 67 67 67 67 67 67 66 66 66 67 67 67 67 66 65 65 65 64 64 64 64 63 63 63 63 63 63 64
69 70 70 70 69 69 70 70 70 70 70 70 70 70 69 69 68 68 67 67 67 67 67 67 66 66 67 67 68 67 64 62 60 60 59 58 58 58 58 57 57 58 58 56 55 55 55 55 56 58 62 63 65 66 67 68 69 69 69 69 69 70 70 70 70 69 68 68 67 67 67 67 67 67 67 67 67 67 67 67 66 66 66 66 66 67 67 66 65 65 64 64 64 64 64 64 63 63 63 63 63 64 64
69 70 70 70 70 69 70 70 70 70 70 70 70 70 69 69 68 67 66 66 66 67 66 66 65 65 66 67 68 67 64 62 60 59 58 58 57 57 57 56 56 57 57 55 55 55 55 56 57 59 62 64 65 66 67 67 68 69 69 69 69 69 70 70 70 69 68 68 68 67 67 67 67 67 67 67 67 67 67 67 66 66 65 66 66 66 66 66 65 65 64 64 64 64 64 64 64 64 64 64 64 64 64
68 69 70 70 70 70 70 71 71 70 70 70 70 70 69 69 68 68 66 65 66 66 65 65 64 65 66 67 68 67 65 62 60 59 58 57 56 56 55 55 55 56 55 55 55 55 56 56 58 60 63 64 65 66 67 67 68 69 69 69 69 69 69 69 69 69 68 68 68 67 67 67 67 67 67 67 67 67 67 66 66 66 65 65 65 65 65 65 65 65 65 65 65 65 65 65 65 65 64 64 64 64 64
68 68 69 69 70 70 70 70 70 70 70 69 69 70 69 69 69 68 66 65 64 64 64 63 64 65 66 67 68 67 65 62 60 58 58 57 56 55 54 54 55 55 54 54 55 55 55 56 58 61 63 64 65 66 67 67 68 69 69 69 69 69 69 69 69 69 68 68 68 67 67 67 67 67 66 66 66 66 66 66 66 65 65 65 65 65 65 65 65 65 65 66 66 66 66 66 65 65 65 65 65 65 64
67 68 69 69 70 70 70 70 70 70 70 69 69 69 69 69 68 68 66 64 63 63 63 63 63 64 66 68 68 67 65 62 60 58 58 57 56 55 54 54 54 54 54 54 55 54 55 56 59 62 63 64 65 66 67 67 67 68 69 69 69 69 70 69 69 69 69 68 68 67 67 67 66 66 65 66 66 66 66 66 66 66 65 65 65 65 65 65 65 65 66 66 66 66 66 66 66 66 66 65 65 65 65
67 67 69 69 70 70 70 70 70 70 70 69 69 69 69 69 68 67 66 63 62 62 62 62 62 64 66 67 67 67 64 61 59 58 58 57 56 55 54 54 54 54 54 54 54 54 54 56 59 62 63 64 65 66 66 67 67 67 68 69 69 70 70 70 70 69 69 68 68 67 67 66 66 65 65 65 65 66 66 66 66 66 65 65 65 65 65 65 65 65 66 66 66 66 66 66 66 66 66 66 66 66 66
66 67 68 69 69 70 69 70 69 69 69 69 68 68 68 68 68 67 65 63 62 61 61 61 62 62 64 65 64 62 62 60 59 58 58 57 56 55 55 54 54 53 54 54 54 54 54 56 59 61 62 63 64 65 66 66 67 67 67 68 69 69 70 70 70 69 69 68 67 67 66 66 65 65 65 66 66 66 66 66 66 66 66 66 66 66 65 65 66 66 66 66 66 66 66 66 66 66 67 66 66 66 66
66 66 67 68 68 69 69 69 69 69 69 69 68 68 68 68 68 67 65 64 62 61 60 60 60 61 61 60 59 58 59 60 59 58 58 58 57 56 55 54 53 53 54 54 54 54 54 56 58 60 61 62 63 65 66 66 66 67 67 68 68 69 69 69 69 69 68 67 67 67 66 66 66 66 66 66 66 66 66 66 66 66 66 66 66 66 66 66 66 66 66 66 66 66 66 66 66 66 67 67 67 67 67
66 66 66 67 67 68 69 69 69 69 69 68 68 68 67 68 68 67 66 64 62 61 59 59 59 59 59 58 58 58 58 59 59 59 58 58 57 56 55 54 53 54 54 54 54 54 54 56 58 58 60 61 62 64 65 66 66 67 67 67 67 68 68 69 69 69 68 67 67 66 66 66 66 66 67 67 67 67 67 67 67 67 67 67 67 67 67 66 66 66 66 66 66 66 66 66 66 66 67 67 67 67 67
66 66 66 66 67 67 68 68 68 68 68 68 68 67 67 67 68 68 67 65 63 61 58 58 58 58 58 58 57 58 58 59 59 59 58 58 57 56 55 54 54 54 55 55 54 54 54 56 57 58 58 60 62 63 64 65 66 66 66 66 66 67 67 68 68 68 68 67 67 67 66 66 67 67 67 67 67 67 67 67 67 67 67 67 67 67 67 67 67 67 67 67 67 67 67 67 67 67 67 67 67 67 67
66 66 66 66 66 67 67 68 68 68 68 68 68 67 67 67 67 67 67 65 64 62 60 58 58 57 58 58 58 58 58 58 58 58 58 57 56 56 56 55 55 55 55 55 55 55 55 55 56 57 58 59 61 62 63 64 64 65 66 65 65 65 66 67 67 67 68 68 67 67 67 67 67 67 67 67 67 67 67 67 67 67 67 67 67 67 67 67 67 67 67 67 67 67 67 67 67 67 67 67 67 67 67
66 66 66 66 66 66 67 67 68 67 67 68 68 68 67 67 67 67 67 66 64 63 62 61 59 58 58 58 58 58 58 58 58 58 57 56 56 56 56 57 56 56 56 55 56 56 56 55 56 56 57 58 60 61 62 63 63 63 64 64 64 64 65 66 66 67 67 67 67 67 67 67 67 67 67 67 67 67 67 67 67 67 67 67 67 67 68 68 68 67 67 67 68 68 68 68 68 67 67 67 67 67 67
66 66 66 66 66 66 66 67 67 67 67 67 68 68 67 67 67 67 67 65 64 63 63 62 62 61 61 60 59 59 59 59 58 58 57 56 56 57 58 58 57 57 56 56 56 56 56 56 56 56 57 58 59 60 62 62 62 63 63 64 65 64 64 65 66 66 66 67 67 68 68 67 67 67 68 67 67 67 67 67 67 67 67 67 67 68 68 68 68 68 68 68 68 68 68 68 68 68 68 68 68 68 68
66 66 66 66 66 66 66 67 67 67 67 67 67 67 67 67 67 67 67 65 64 63 63 62 62 62 62 61 61 61 61 61 60 59 58 58 58 59 62 62 61 58 55 56 57 57 56 56 56 56 56 57 58 59 60 61 62 62 62 64 65 65 65 66 66 65 65 66 67 67 68 68 68 68 68 68 68 68 68 68 68 68 68 68 68 68 68 68 68 68 68 68 68 68 68 68 69 69 69 69 69 69 69
65 66 66 66 66 66 66 66 67 67 67 67 67 67 67 67 67 67 66 65 64 63 63 62 62 62 62 62 62 62 62 62 61 60 59 59 60 61 62 63 62 60 56 58 59 59 56 56 56 56 56 56 57 58 59 60 61 61 62 62 64 65 66 66 65 65 64 64 65 67 68 69 69 69 69 69 69 68 68 68 68 68 68 68 68 68 68 68 68 68 68 68 68 69 69 69 69 69 69 69 69 69 69
63 64 65 65 65 65 66 66 67 67 67 67 67 67 67 67 67 66 66 65 65 64 63 62 62 62 62 62 62 62 62 62 61 61 61 60 61 62 62 63 63 62 61 62 63 63 60 61 60 58 58 59 59 59 58 60 61 61 61 62 63 64 65 65 65 65 65 64 64 65 67 68 68 69 69 69 69 69 69 69 69 69 68 68 68 68 68 69 69 69 69 69 69 69 70 70 70 70 69 69 69 69 69
62 63 64 64 65 65 65 66 67 67 67 67 67 67 67 67 66 66 66 65 65 64 63 62 61 61 61 62 62 62 62 62 62 61 62 61 61 62 62 63 63 64 65 65 66 67 67 67 65 64 64 65 64 63 61 62 62 61 61 62 63 64 65 65 65 65 65 65 65 65 66 67 68 68 69 69 70 69 69 69 69 69 69 69 69 69 69 69 69 70 69 69 70 70 70 70 70 69 69 69 69 69 69
61 62 62 62 63 64 64 65 66 66 67 67 67 67 67 67 66 65 65 65 64 64 63 62 62 61 61 62 62 62 62 62 62 62 62 62 62 62 63 63 64 65 66 67 67 66 66 65 65 66 66 66 65 65 64 63 62 62 62 62 63 64 64 64 64 64 64 65 65 64 64 66 67 67 68 69 69 70 70 70 69 69 69 69 69 70 70 70 70 70 70 70 70 70 70 70 69 69 69 68 68 69 69
60 61 62 62 62 63 64 65 65 66 66 66 66 66 67 66 66 65 65 65 64 63 63 63 62 62 61 62 62 62 62 62 62 62 63 63 63 63 63 64 65 65 66 66 66 66 65 65 64 65 65 65 65 64 64 64 63 63 63 63 64 64 64 63 63 64 64 64 64 64 64 64 65 66 67 67 68 69 69 69 69 69 69 69 70 70 70 70 70 70 70 70 70 70 70 70 70 69 69 68 69 69 69
60 61 62 62 62 63 64 64 65 66 65 66 66 66 66 66 66 66 65 65 63 63 62 63 62 62 62 62 62 62 62 62 62 63 63 63 63 63 63 64 64 64 65 66 65 65 64 64 64 64 64 63 63 63 63 64 64 64 64 64 64 64 64 63 63 63 63 63 63 63 63 63 64 64 65 66 66 67 67 68 68 69 69 70 70 70 70 70 70 70 70 70 70 70 70 70 70 69 69 69 69 69 70
59 60 61 62 62 62 63 63 64 65 65 65 65 65 65 66 66 66 65 65 64 63 62 62 62 62 62 62 62 62 61 62 62 63 64 64 63 63 62 62 62 62 63 64 64 64 63 63 63 63 62 62 62 62 62 62 63 63 64 64 64 64 64 63 63 63 63 63 63 63 63 63 63 63 63 64 64 65 65 66 67 67 68 69 70 70 70 70 70 70 70 70 70 70 70 70 70 70 70 69 70 70 70
58 59 60 61 61 62 62 62 63 64 65 65 65 65 65 65 65 65 65 65 64 63 62 62 62 62 62 62 62 61 62 62 63 63 63 62 62 61 60 60 60 60 60 61 62 62 62 62 62 62 61 61 61 60 60 61 61 62 62 63 63 63 63 63 63 63 63 63 63 63 63 62 62 63 63 63 63 63 63 64 65 67 68 69 70 70 70 70 70 69 69 69 69 70 70 70 70 70 70 70 70 70 69
58 58 58 59 60 61 61 62 62 63 64 65 65 65 65 65 65 65 65 65 64 64 63 62 62 62 62 62 62 62 62 63 63 62 62 60 59 58 58 57 57 58 58 58 59 60 61 61 61 60 60 60 59 59 59 59 60 60 61 61 62 62 62 62 62 62 62 62 62 62 62 62 62 62 62 62 62 62 63 63 64 65 67 68 69 70 70 69 69 69 69 69 69 69 69 70 70 70 70 70 70 69 69
57 58 58 58 59 60 60 61 62 62 63 64 64 64 64 64 64 64 64 65 64 64 63 63 62 62 62 62 62 62 63 63 62 61 59 58 58 57 56 55 55 55 56 56 57 58 58 59 59 59 59 59 59 58 58 58 59 59 58 59 59 60 60 60 60 60 61 61 61 62 61 61 62 62 62 62 62 62 62 62 63 64 66 67 68 69 69 68 68 69 69 69 69 69 69 69 70 70 70 69 69 68 68
57 57 57 58 58 58 59 60 60 61 62 62 63 64 64 64 64 64 64 64 64 63 63 63 62 62 62 62 62 62 63 62 61 59 58 57 56 55 55 54 54 54 54 54 54 55 56 56 57 57 58 58 58 58 58 58 58 58 58 58 58 58 58 58 58 58 59 59 60 60 60 60 60 61 61 61 61 62 62 62 63 63 64 65 66 67 67 67 67 68 69 69 69 69 69 69 69 69 69 69 68 67 67
56 57 57 57 57 57 58 58 59 60 61 61 62 63 64 64 64 64 64 65 64 64 63 63 62 62 61 61 62 62 62 61 60 58 57 56 55 54 54 53 53 53 53 53 53 53 53 53 54 55 56 56 57 57 57 57 57 57 57 57 56 56 56 56 57 57 58 58 58 58 58 59 59 59 60 60 60 61 61 62 62 63 63 64 65 66 66 66 66 67 68 68 69 69 69 69 69 69 68 68 67 67 66
55 56 56 56 57 57 57 57 58 58 59 60 61 62 63 64 64 64 64 64 64 64 63 63 63 62 62 61 62 62 61 60 59 58 57 56 54 53 53 53 52 52 52 53 53 52 52 52 52 52 53 54 55 56 56 56 56 56 56 55 55 55 55 55 55 56 56 56 56 57 57 58 58 58 59 59 59 60 60 61 62 62 63 64 64 65 65 65 66 67 67 68 68 69 69 69 69 68 67 67 67 66 65
55 55 55 56 56 56 57 57 57 58 58 59 61 62 63 63 64 64 63 63 63 64 63 62 62 62 62 62 62 62 61 60 59 58 57 56 55 54 53 53 52 52 52 52 52 52 52 51 51 51 51 53 54 54 55 55 55 54 54 54 54 54 54 54 55 55 55 55 55 55 56 56 57 58 58 58 58 59 60 60 61 62 62 63 64 64 65 65 66 66 67 67 68 68 68 68 68 68 67 67 66 66 65
55 55 55 55 56 56 56 56 57 57 58 58 60 61 62 63 63 63 63 63 63 63 63 62 62 62 62 62 62 62 61 60 60 59 58 56 55 54 54 53 52 51 51 51 51 51 51 50 50 50 50 51 52 53 54 54 54 53 53 53 53 53 53 54 54 54 54 54 54 54 55 55 56 56 57 57 58 58 59 60 60 61 62 62 62 62 63 63 63 64 65 67 67 67 67 67 67 67 67 66 66 65 65
54 54 55 55 55 56 56 56 56 57 57 57 58 59 59 61 62 63 63 63 62 62 63 62 62 62 62 62 61 61 61 61 60 60 58 57 55 55 54 54 53 52 51 50 49 49 49 49 49 49 49 50 50 51 53 53 53 53 53 53 53 53 53 53 53 53 53 53 53 53 54 54 55 55 56 56 57 58 58 59 60 60 61 62 62 62 62 61 60 60 62 63 65 67 66 66 66 66 66 66 65 65 64
53 54 54 55 55 55 55 55 56 56 57 57 57 57 58 59 61 62 63 62 62 62 62 62 62 62 61 61 60 60 60 61 61 60 58 57 56 55 54 54 54 53 53 51 49 48 47 47 47 47 49 49 50 50 51 52 52 52 52 52 52 53 53 53 53 53 52 52 52 53 53 53 53 54 55 55 56 57 57 58 59 59 60 61 62 63 63 62 60 59 60 61 62 62 65 65 66 65 65 65 65 64 64
53 53 54 54 54 54 55 55 55 55 56 56 57 57 57 57 58 58 61 62 62 62 62 62 62 62 61 60 60 60 60 61 61 61 59 58 57 56 55 54 54 54 53 53 51 49 47 46 46 47 48 49 49 49 49 50 51 51 52 52 51 52 52 52 52 51 51 52 52 52 52 52 53 53 53 54 55 55 56 57 58 58 59 60 61 61 62 61 61 61 61 60 60 60 62 64 65 64 64 64 64 64 63
52 53 53 54 54 54 54 54 54 55 55 56 56 56 56 56 57 57 58 61 62 62 62 62 62 62 61 60 59 59 60 60 61 61 59 58 58 57 57 55 53 52 51 52 51 49 48 47 46 46 46 48 48 47 48 49 49 49 50 50 50 50 51 51 51 51 51 51 51 51 52 52 52 52 52 53 53 54 55 56 57 58 58 59 60 61 62 62 63 63 62 61 60 59 60 62 63 63 63 63 63 63 63
52 52 53 53 53 53 54 54 54 54 55 55 55 55 56 56 56 57 57 58 60 62 62 62 62 62 61 61 60 59 59 59 59 59 59 58 58 58 57 56 54 53 52 51 51 50 48 48 48 46 45 47 48 47 47 48 48 48 49 49 49 49 49 50 50 50 50 50 50 50 51 51 51 51 51 52 53 53 54 55 56 57 58 58 59 60 61 62 62 63 63 62 61 60 59 61 62 63 63 63 62 62 62
52 52 52 53 53 53 53 53 54 54 54 55 55 55 55 55 55 56 56 57 58 60 62 62 61 61 61 61 60 60 59 58 58 58 58 58 57 57 57 56 56 55 55 53 52 50 48 49 48 46 44 46 47 48 48 47 47 47 47 48 48 48 49 48 48 49 49 49 49 49 49 50 50 50 51 51 52 52 53 54 55 56 57 58 58 59 60 60 61 62 62 62 61 60 59 61 62 62 62 62 62 62 62
51 52 52 52 53 53 53 53 53 54 54 54 54 54 54 54 54 55 55 56 58 59 61 61 61 61 61 61 60 59 58 57 56 56 57 57 57 57 56 55 55 54 54 54 53 51 50 50 49 47 45 45 45 46 47 46 46 46 46 47 47 47 47 47 47 47 47 47 48 48 48 48 49 49 50 50 51 51 52 53 54 55 57 58 58 58 59 59 59 60 60 60 60 60 61 61 62 62 62 62 62 61 61
51 51 51 52 52 53 53 53 53 53 54 54 54 54 54 54 54 54 55 55 57 58 60 60 60 60 60 60 59 58 57 56 56 56 56 56 56 56 56 55 54 54 53 53 53 52 52 51 49 48 47 46 45 44 44 45 45 46 46 46 46 46 46 46 46 46 46 46 47 47 47 47 48 48 49 49 50 51 51 52 53 54 55 57 58 58 59 59 60 60 60 60 60 60 60 61 61 61 62 61 61 61 60
51 51 51 51 52 52 53 53 53 53 54 54 54 54 54 54 54 54 54 54 55 56 58 59 60 60 60 59 59 58 57 57 57 57 57 56 55 56 56 55 54 54 53 53 53 53 53 52 51 50 49 48 46 44 43 43 44 45 45 45 45 45 45 46 46 46 46 46 46 46 46 47 47 47 48 49 49 50 51 51 52 53 54 55 57 58 58 59 59 60 60 60 59 59 59 60 60 61 61 61 60 60 59